Wind_Speed
106 106 106 106 106 107 107 107 107 107 107 108 109 109 110 111 112 112 112 113 113 113 113 114 114 115 115 116 116 117 117 118 119 120 122 124 126 127 128 128 128 128 128 128 128 128 128 129 129 129 129 129 128 128 128 127 127 126 125 125 124 123 122 121 120 119 119 118 117 117 115 114 112 110 108 105 103 100 97 95 92 89 86 84 81 78
110 110 111 111 111 111 110 110 109 109 109 110 110 111 112 112 113 113 113 113 113 113 113 113 114 114 115 115 116 116 117 117 119 120 123 125 128 129 130 130 130 129 129 129 129 129 129 129 129 129 129 129 129 128 128 127 126 126 125 124 123 122 121 120 120 119 118 118 117 115 113 111 109 106 104 101 99 96 93 90 87 85 82 79 77 75
110 111 112 113 113 113 113 112 111 111 111 111 112 113 114 115 116 116 116 116 116 116 116 116 117 117 118 118 119 119 120 121 123 125 128 130 131 132 132 132 132 131 131 130 130 130 130 130 130 130 130 129 129 128 127 126 125 124 123 123 122 121 121 120 119 118 117 116 114 112 110 107 104 102 99 97 94 91 88 86 83 80 78 76 74 72
109 111 112 113 113 113 114 113 113 113 114 114 115 116 118 119 119 120 120 121 121 121 121 121 121 121 122 123 123 124 126 128 131 134 136 136 136 134 133 132 132 132 132 131 131 131 130 130 130 129 128 128 127 126 125 124 124 123 122 122 121 121 120 119 118 116 115 113 110 108 105 102 99 96 94 92 89 87 84 81 79 77 74 72 71 69
112 112 113 114 114 115 115 116 116 116 117 118 118 119 121 122 123 123 124 124 124 124 124 124 124 124 124 125 126 128 131 134 138 141 142 143 142 138 134 132 130 130 130 130 130 129 129 128 127 127 126 125 124 124 123 123 123 122 122 121 120 119 118 116 114 112 110 108 105 102 99 96 94 91 89 87 85 82 80 77 75 73 71 70 68 66
116 116 117 117 118 118 119 119 120 121 121 121 122 123 123 124 125 126 126 127 127 127 126 126 125 125 126 127 129 133 136 140 143 146 147 147 145 141 136 132 129 128 128 128 127 127 126 126 125 125 124 124 123 123 123 122 122 121 120 119 117 116 114 111 109 106 104 101 99 96 93 91 89 87 85 82 80 78 76 74 72 70 68 67 65 64
120 121 121 121 122 122 123 124 125 125 126 126 127 127 127 128 128 129 129 129 129 129 129 129 128 129 130 132 136 139 143 146 148 149 149 147 145 140 136 132 129 127 126 126 125 125 125 125 124 124 123 123 122 122 121 120 119 118 117 115 112 110 108 105 102 99 97 95 92 90 88 86 84 82 80 78 76 75 73 71 69 67 66 64 63 62
124 124 125 125 126 126 127 128 128 129 130 130 131 131 132 132 132 132 132 132 132 132 133 133 134 135 137 140 143 146 148 149 149 148 146 143 139 136 132 130 128 127 126 125 125 124 124 124 123 123 122 121 120 119 118 116 115 113 110 108 105 103 100 98 95 93 91 89 87 85 84 82 80 78 77 75 73 71 70 68 66 65 63 62 61 60
127 128 128 129 129 129 130 131 132 132 133 133 134 134 135 135 135 135 135 135 136 137 137 139 140 142 145 147 149 149 149 147 144 140 136 133 130 129 128 127 126 125 124 124 123 123 122 121 120 119 118 117 115 114 112 110 108 105 103 100 98 95 93 91 89 87 86 84 83 81 80 78 77 75 73 71 70 68 67 65 64 63 61 60 59 58
131 131 132 132 132 133 133 134 135 135 135 136 136 137 137 138 138 139 139 140 141 142 143 144 146 147 148 149 147 144 140 135 130 125 123 121 120 121 121 121 121 120 120 119 119 118 117 116 114 113 111 110 108 106 104 102 99 97 95 93 91 89 87 86 84 83 82 80 79 78 77 75 73 72 70 68 67 66 64 63 62 61 59 58 57 56
134 134 134 135 135 135 136 136 137 138 138 139 139 140 141 141 142 143 143 144 145 146 146 146 146 145 144 140 135 129 123 118 114 112 111 111 111 111 112 112 112 112 112 111 110 109 108 107 106 104 103 101 99 97 96 94 92 90 89 87 86 84 83 82 81 79 78 77 76 75 74 72 70 69 67 65 64 63 62 61 60 59 58 56 55 54
137 137 137 137 137 137 138 138 139 139 140 140 141 142 142 143 144 144 144 144 145 144 143 142 139 135 129 123 118 113 109 106 104 103 102 102 102 102 102 102 102 102 102 101 101 100 99 98 97 96 94 93 92 91 89 88 87 85 84 83 82 81 80 79 78 77 75 74 73 72 71 69 67 66 64 63 62 61 60 59 58 57 56 55 54 53
138 138 138 138 138 138 139 139 139 140 140 140 140 141 141 142 142 141 140 140 139 136 133 129 124 118 113 108 105 103 101 99 98 97 97 96 95 95 95 95 94 94 94 93 93 92 92 91 90 89 88 87 87 86 85 84 83 82 81 80 79 78 77 76 75 74 73 72 71 69 68 66 65 63 62 61 59 58 57 57 56 55 54 53 53 52
137 137 136 136 137 137 137 137 137 137 138 138 137 137 137 137 136 134 133 131 127 123 119 114 110 106 103 101 99 97 96 96 95 94 93 92 91 91 90 90 90 89 89 89 88 88 87 86 86 85 84 84 83 82 81 81 80 79 78 77 76 75 74 74 73 71 70 69 68 67 65 64 62 61 60 58 57 57 56 55 54 54 53 52 51 51
132 132 132 132 132 132 133 132 132 132 132 132 131 131 130 128 127 125 122 119 115 112 108 105 103 101 99 97 95 94 93 93 92 91 90 89 88 88 87 87 87 86 86 85 85 85 84 83 83 82 82 81 80 80 79 78 77 77 76 75 74 73 72 71 70 69 68 67 65 64 63 61 60 59 58 57 56 55 54 53 53 52 51 51 50 49
126 126 126 126 126 126 126 126 126 125 125 124 123 122 121 119 117 115 113 110 108 106 103 101 100 98 96 95 93 92 91 90 90 89 88 87 86 85 85 84 84 84 83 83 82 82 81 81 80 80 79 78 78 77 77 76 75 74 73 73 72 71 70 69 68 66 65 64 63 61 60 59 58 57 56 55 54 53 52 52 51 51 50 50 49 48
120 120 120 120 120 120 120 120 119 119 118 117 116 115 113 112 111 110 108 107 105 104 102 100 99 97 96 94 92 90 89 88 88 87 86 85 84 83 82 82 82 82 81 81 80 80 79 78 78 77 76 76 76 75 74 74 73 72 71 70 69 68 67 66 65 64 63 62 60 59 58 57 56 55 54 53 53 52 51 51 50 49 49 48 48 47
115 115 115 115 115 115 115 114 114 113 113 112 111 110 109 109 108 108 107 106 105 104 102 101 99 97 96 95 92 90 88 87 86 85 84 83 82 81 81 80 80 80 79 79 78 77 77 76 75 75 74 74 73 73 72 71 70 70 69 68 67 66 65 64 63 61 60 59 58 57 56 55 55 54 53 52 51 51 50 49 49 48 48 47 47 46
112 112 111 111 111 111 111 111 111 110 110 109 109 108 108 107 107 107 106 106 105 104 103 102 100 99 97 95 93 90 88 87 86 85 84 83 82 80 79 79 79 78 77 77 76 75 75 74 73 73 72 72 71 71 70 69 68 67 67 66 65 64 63 61 60 59 58 57 56 55 54 54 53 52 52 51 50 49 49 48 47 47 47 46 46 45
109 110 110 110 109 109 109 110 109 109 109 108 108 107 107 107 106 106 106 105 105 104 103 103 102 100 98 96 93 90 88 87 86 85 84 82 81 80 79 78 77 77 76 75 74 74 73 72 72 71 70 70 69 69 68 67 66 65 64 63 62 61 60 59 58 57 56 55 54 54 53 52 51 51 50 49 48 48 47 47 46 46 46 45 45 44
108 109 109 108 108 108 108 109 109 108 108 108 107 107 106 106 106 105 105 105 105 104 103 103 102 100 98 96 94 92 89 87 86 85 84 82 81 79 78 77 76 76 75 74 73 72 71 70 70 69 68 68 67 66 66 65 64 63 62 61 60 59 58 57 56 55 54 54 53 52 52 51 50 49 48 48 47 47 46 46 45 45 45 44 44 43
107 108 108 108 108 107 108 108 108 108 108 107 107 107 106 106 105 105 104 104 104 104 104 103 102 100 98 97 95 93 90 88 86 85 83 82 81 79 77 76 75 74 74 73 72 71 70 69 68 67 67 66 65 65 64 63 62 61 60 59 58 57 56 55 54 54 53 52 51 51 50 49 48 48 47 46 46 46 45 45 45 44 44 43 43 43
107 107 107 107 107 107 107 107 108 108 108 107 107 107 106 105 105 104 104 104 104 104 103 103 101 100 98 97 95 93 91 88 86 84 83 81 80 78 76 75 74 73 72 71 70 69 68 67 66 65 65 64 63 63 62 61 60 59 58 57 56 55 54 54 53 52 51 51 50 49 48 47 47 46 46 45 45 45 44 44 44 43 43 43 42 42
107 107 107 107 107 107 107 107 107 108 108 107 107 107 106 105 104 103 103 103 103 103 103 102 101 100 99 97 96 93 91 88 86 84 82 81 79 77 75 74 73 72 71 70 69 68 67 66 65 64 63 62 61 61 60 59 58 57 56 55 54 53 53 52 51 51 50 49 48 47 46 46 45 45 44 44 44 44 44 43 43 43 42 42 42 41
107 107 107 107 107 107 107 107 107 107 108 107 107 107 106 105 104 103 103 102 102 102 102 102 102 101 99 98 96 94 91 88 85 83 81 80 78 76 74 72 71 70 69 68 67 66 65 64 63 62 61 60 60 59 58 57 56 55 54 53 53 52 51 51 50 49 48 47 46 45 45 44 44 44 44 43 43 43 43 42 42 42 41 41 41 40
108 108 107 107 107 107 107 107 107 107 107 107 107 107 106 105 104 103 102 102 102 102 102 102 102 101 99 97 96 93 90 87 84 82 80 79 77 75 73 71 70 69 68 67 66 64 63 62 61 60 59 58 58 57 56 55 54 53 52 52 51 50 50 49 49 48 47 45 44 44 43 43 43 43 43 43 42 42 42 42 41 41 41 40 40 40
108 108 108 108 107 107 107 107 107 107 107 107 107 107 106 105 104 103 102 101 101 101 101 101 100 100 98 97 95 92 89 87 84 81 79 77 76 74 72 70 68 67 66 65 64 63 62 61 60 59 58 57 56 55 54 53 52 51 51 50 50 49 48 48 47 46 45 44 43 42 42 42 42 42 42 42 42 41 41 41 40 40 40 40 39 39
108 108 108 108 108 107 107 107 107 107 107 107 107 106 106 105 104 103 102 100 100 99 99 99 99 98 97 95 94 91 88 85 83 80 78 76 74 73 70 68 66 65 64 63 62 61 60 59 58 57 56 55 54 53 52 51 50 50 49 49 48 48 47 46 45 44 43 42 42 41 41 41 41 41 41 41 41 41 40 40 40 39 39 39 38 38
108 108 108 107 107 107 107 107 107 107 107 106 106 106 105 104 103 102 100 99 98 97 98 98 97 96 95 93 92 89 87 84 81 78 76 74 73 71 68 66 65 64 63 62 61 60 59 57 56 55 54 53 52 51 50 49 49 48 48 47 47 46 45 44 43 42 42 41 41 41 41 41 40 40 40 40 40 40 39 39 39 38 38 38 37 37
107 107 107 107 107 107 106 106 106 106 106 106 105 105 104 104 102 101 99 97 96 95 96 96 95 94 93 91 89 87 85 82 79 76 74 72 71 69 67 65 64 62 61 60 59 58 57 56 55 53 52 51 50 49 49 48 47 47 46 46 45 45 43 42 42 41 41 41 40 40 40 40 40 40 40 39 39 39 39 38 38 37 37 37 36 35
107 107 106 106 106 106 106 105 105 105 105 105 105 104 104 103 102 100 97 95 94 93 93 93 92 91 90 88 86 84 83 80 77 74 72 70 69 67 65 64 62 61 59 58 57 56 56 55 53 51 50 49 49 48 47 47 46 46 45 45 44 43 42 41 40 40 40 40 40 40 39 39 39 39 39 39 38 38 38 37 37 36 36 35 35 34
107 106 106 106 106 105 105 105 104 104 104 104 104 103 103 102 101 98 96 93 92 91 91 91 90 89 87 86 84 82 80 78 75 72 70 68 67 66 64 62 61 59 58 56 55 54 54 53 52 50 49 48 47 47 46 46 45 45 44 43 42 41 40 40 40 40 40 40 39 39 39 39 38 38 38 38 37 37 37 36 36 35 35 34 34 33
107 106 106 106 105 105 104 104 104 104 103 103 103 102 102 101 99 97 94 92 90 89 89 88 87 86 84 83 81 80 78 75 72 70 68 66 65 64 62 61 59 58 56 55 54 53 52 51 50 49 48 47 46 46 45 45 44 44 43 42 40 40 39 39 39 39 39 39 39 38 38 38 38 38 37 37 36 36 35 35 34 34 34 33 33 32
107 106 106 105 105 104 104 104 103 103 103 102 102 101 101 100 98 95 92 90 88 87 87 86 85 83 82 80 79 77 75 72 70 68 66 64 63 62 60 59 57 56 55 53 52 51 50 50 49 48 47 46 45 45 44 44 43 42 41 40 39 38 38 38 38 38 38 38 38 38 38 37 37 37 36 36 35 35 34 34 33 33 33 32 32 32
107 106 105 105 104 104 104 103 103 102 102 101 101 100 100 98 96 93 90 88 86 85 85 84 82 81 79 78 76 74 72 70 68 66 64 62 61 60 59 57 56 54 53 52 51 50 49 48 48 47 46 45 45 44 43 42 42 41 40 39 38 38 38 38 38 38 38 38 37 37 37 37 36 36 35 35 34 34 33 33 32 32 32 32 31 31
107 106 105 105 104 104 103 103 102 102 101 101 100 99 98 96 94 91 88 86 84 83 83 81 80 78 77 75 73 72 70 68 66 64 62 61 59 58 57 56 54 53 51 51 50 49 48 47 47 46 45 44 44 43 42 41 41 40 39 38 37 37 37 37 37 37 37 37 37 37 36 36 35 35 34 34 33 33 32 32 32 31 31 31 31 31
106 106 105 105 104 104 103 102 102 101 100 100 99 98 96 94 92 89 86 84 82 81 80 79 77 76 75 73 71 69 68 66 64 62 61 59 58 56 55 54 53 51 50 49 49 48 47 47 46 45 44 44 43 42 41 40 39 38 38 37 36 36 37 37 37 37 37 36 36 36 35 35 34 34 33 33 32 32 32 31 31 31 31 31 31 31
106 106 105 104 104 103 102 102 101 100 99 98 97 96 94 92 89 86 84 82 81 79 78 76 75 74 73 71 69 67 66 64 62 61 59 58 56 55 54 53 51 50 49 48 48 47 47 46 45 44 43 43 42 41 40 39 38 37 37 36 36 36 36 36 36 36 36 36 35 35 35 34 34 33 33 32 32 31 31 31 31 31 31 31 31 31
106 105 105 104 103 102 102 101 100 99 98 97 95 94 92 90 87 84 82 80 79 78 76 74 73 71 70 69 67 65 64 62 61 59 58 56 55 54 52 51 50 49 48 48 47 46 46 45 44 43 42 42 41 40 39 38 37 36 36 36 35 35 35 35 35 35 35 35 34 34 34 33 33 32 32 32 31 31 31 31 31 31 31 31 31 31
105 104 104 103 102 101 100 100 98 97 96 95 93 92 90 87 85 82 80 78 77 75 74 72 70 69 68 66 65 63 62 61 59 58 56 55 54 53 51 50 49 48 48 47 46 46 45 44 43 42 41 40 40 39 38 37 36 36 35 35 35 35 35 35 34 34 34 34 34 33 33 32 32 32 32 31 31 31 31 31 31 30 30 30 31 31
103 103 102 101 100 99 99 98 96 95 94 93 91 90 88 85 82 80 78 77 75 73 71 70 68 67 65 64 63 62 60 59 58 57 55 54 53 52 50 49 49 48 47 47 46 45 44 43 42 41 40 39 39 38 37 36 36 35 35 35 35 34 34 34 34 34 33 33 33 32 32 32 31 31 31 31 31 31 30 30 30 30 30 30 30 30
101 101 100 99 98 97 96 95 94 93 92 90 89 87 85 82 80 78 76 75 73 71 69 67 66 65 63 62 61 60 59 58 56 55 54 53 52 51 50 49 48 47 47 46 45 44 43 42 41 40 39 39 38 37 36 36 35 35 34 34 34 34 34 33 33 33 32 32 32 32 31 31 31 31 30 30 30 30 30 30 30 29 29 29 29 29
98 98 97 96 95 94 93 92 91 90 89 88 86 84 82 80 78 76 74 73 70 68 67 65 64 62 61 60 59 58 57 56 55 54 53 52 51 50 49 48 47 47 46 46 45 44 42 41 40 39 39 38 37 36 36 35 35 34 34 34 34 34 33 33 32 32 32 31 31 31 31 30 30 30 30 30 30 29 29 29 29 29 29 29 29 29
95 94 94 93 92 91 90 90 89 88 86 85 83 81 79 77 75 74 72 70 68 66 64 63 62 60 59 58 57 56 56 55 54 53 52 51 50 49 48 48 47 47 46 45 44 43 41 40 39 38 38 37 36 36 35 35 34 34 34 34 33 33 33 32 31 31 31 31 31 30 30 30 29 29 29 29 29 29 29 28 28 28 28 28 28 28
91 90 90 89 89 88 87 86 86 84 83 82 80 78 76 74 73 72 70 68 65 63 62 61 59 58 57 56 56 55 54 53 53 52 51 50 49 48 48 47 47 46 46 45 43 42 40 39 38 37 37 36 36 35 35 34 34 34 33 33 33 32 32 31 30 30 30 30 30 30 29 29 29 29 28 28 28 28 28 28 28 28 28 28 28 28
87 86 86 85 85 84 84 83 82 81 80 78 76 74 73 72 71 70 67 65 63 61 60 59 57 56 56 55 54 53 53 52 51 50 50 49 48 47 47 47 47 46 45 43 42 40 39 38 37 37 36 35 35 35 34 34 34 33 33 33 32 31 31 30 30 30 29 29 29 29 29 29 28 28 28 28 28 28 28 27 27 27 27 27 27 27
83 82 82 82 81 81 80 79 79 78 76 75 73 71 71 70 69 67 64 62 60 59 58 57 56 55 54 53 53 52 52 51 50 49 48 48 47 47 47 47 46 45 44 42 40 39 38 37 37 36 35 35 34 34 34 33 33 33 33 32 31 31 30 30 29 29 29 29 29 28 28 28 28 28 28 28 27 27 27 27 27 27 27 27 27 28
78 78 78 78 77 77 76 76 75 74 73 71 70 69 69 68 67 64 61 59 58 57 56 55 54 53 53 52 51 51 50 50 49 48 47 47 47 47 47 46 45 44 42 40 39 38 37 36 36 35 35 34 34 34 33 33 33 33 32 31 31 30 30 29 29 28 28 28 28 28 28 28 28 28 27 27 27 27 27 27 28 28 28 28 28 28
74 74 74 74 74 73 73 72 71 70 69 68 67 67 67 66 64 61 58 57 56 55 54 53 53 52 51 51 50 50 49 48 48 47 47 47 47 46 46 45 44 42 40 39 37 37 36 36 35 35 34 34 34 33 33 33 32 32 32 31 30 30 29 28 28 28 28 27 27 27 28 28 28 28 27 27 27 27 28 28 28 28 28 28 28 28
71 71 70 70 70 70 69 69 68 67 66 65 65 65 65 63 61 58 56 54 54 53 53 52 51 51 50 49 49 48 48 47 47 47 46 46 46 46 45 44 42 40 38 37 36 36 35 35 35 35 34 33 33 33 33 32 32 32 31 30 30 29 28 28 28 27 27 27 27 27 27 27 28 28 28 28 28 28 28 28 28 28 28 28 28 29
67 67 67 67 67 67 66 65 65 64 63 63 63 63 62 60 57 55 53 53 52 52 51 50 50 49 48 48 47 47 47 46 46 46 46 46 46 45 43 41 39 37 36 35 35 35 34 34 34 34 34 33 33 33 32 32 32 31 31 30 29 29 28 28 27 27 27 27 27 27 27 27 28 28 28 29 29 29 29 29 29 29 29 29 29 29
Wind_Direction
272 273 273 273 273 274 274 274 275 275 275 276 276 277 277 278 278 278 279 279 279 280 281 281 282 283 283 284 284 285 286 286 287 288 289 289 289 289 289 289 289 289 289 289 290 290 291 291 292 292 293 293 294 294 295 295 296 296 296 296 297 297 297 297 298 298 298 298 298 298 299 299 299 299 299 299 300 300 300 300 300 300 300 301 300 300
273 273 273 273 273 274 274 274 274 275 275 276 276 276 277 277 277 277 278 278 279 279 280 280 281 282 282 283 283 284 285 285 286 287 288 289 289 288 288 288 288 288 288 289 289 289 290 290 291 291 292 292 293 293 293 294 294 294 295 295 295 296 296 296 297 297 297 297 297 298 298 298 298 298 298 298 298 298 299 299 299 299 299 299 299 298
275 275 275 275 275 275 275 275 275 275 275 276 276 276 277 277 277 277 278 278 279 279 279 280 281 281 282 282 283 283 284 285 286 287 289 289 289 288 287 286 286 286 287 287 288 288 289 289 290 290 291 291 291 292 292 293 293 293 294 294 295 295 295 296 296 296 296 296 296 297 297 297 297 297 297 297 297 297 298 298 298 298 298 297 297 296
276 275 275 275 275 275 275 275 275 275 275 275 276 276 276 277 277 277 278 278 278 279 279 280 280 281 281 282 282 283 284 285 286 288 289 290 290 290 288 286 285 285 285 286 286 287 288 288 289 289 290 290 291 291 291 292 292 293 293 294 294 294 295 295 295 295 295 295 295 296 296 296 296 296 296 296 296 297 297 297 297 296 296 296 295 295
274 274 274 274 274 274 274 274 274 274 275 275 275 275 276 276 277 277 278 278 278 279 279 279 280 280 281 282 282 283 284 286 287 288 289 290 290 290 289 287 286 285 285 285 286 286 287 288 288 289 289 290 290 291 291 291 292 292 293 293 293 294 294 294 294 294 294 294 295 295 295 295 295 295 295 295 295 296 295 295 295 295 294 294 293 293
274 274 273 273 273 273 274 274 274 274 274 274 275 275 275 276 276 277 277 278 278 278 279 279 280 280 281 281 283 284 285 286 287 288 289 289 289 289 288 287 286 286 286 286 286 286 287 287 288 288 289 289 290 290 291 291 292 292 292 292 293 293 293 293 293 293 293 294 294 294 294 294 294 294 294 294 294 294 294 294 294 293 293 292 292 291
274 274 274 273 273 273 274 274 274 274 274 274 275 275 275 276 276 277 277 278 278 279 279 279 280 280 281 282 283 284 285 286 287 288 288 288 288 287 287 287 286 286 286 286 286 287 287 288 288 288 289 289 290 290 290 291 291 291 292 292 292 292 292 292 292 293 293 293 293 293 293 293 293 293 293 293 293 293 293 293 292 292 291 291 290 290
274 274 274 274 274 274 274 274 274 274 274 275 275 275 276 276 277 277 277 278 278 279 279 279 280 280 281 282 283 285 286 287 287 287 287 287 286 286 286 286 286 286 286 287 287 287 287 288 288 289 289 289 290 290 290 290 291 291 291 291 291 292 292 292 292 292 292 292 292 292 292 292 292 292 293 292 292 292 291 291 290 290 290 289 289 289
274 274 274 274 274 274 274 274 274 275 275 275 275 276 276 276 277 277 278 278 279 279 279 280 280 281 282 283 284 285 286 287 287 286 286 285 285 285 285 285 286 286 286 287 287 287 288 288 288 288 289 289 289 289 290 290 290 290 291 291 291 291 291 291 291 291 291 291 291 291 291 291 292 292 291 291 291 290 290 289 289 288 288 288 288 288
274 274 274 274 274 274 274 275 275 275 275 276 276 276 276 277 277 278 278 278 279 279 280 281 281 282 284 285 286 286 286 286 286 286 285 285 285 285 285 285 286 286 286 287 287 287 287 288 288 288 288 289 289 289 289 290 290 290 290 290 291 291 291 291 291 291 291 291 291 291 291 291 291 290 290 290 289 289 288 288 287 287 287 286 286 286
275 275 275 275 275 275 275 275 276 276 276 277 277 277 277 278 278 278 279 279 280 281 281 282 283 284 285 286 286 286 286 286 286 286 286 286 286 286 286 286 286 286 286 287 287 287 287 287 288 288 288 288 288 289 289 289 289 290 290 290 290 290 290 290 290 290 290 290 290 290 290 289 289 289 288 288 287 287 286 286 286 286 285 285 285 285
277 277 277 277 277 277 277 277 278 278 278 278 278 279 279 279 280 280 280 281 282 282 283 284 285 285 286 286 286 287 287 287 288 288 288 287 287 287 287 287 287 287 287 287 287 287 287 287 287 288 288 288 288 288 289 289 289 289 290 290 290 290 290 289 289 289 289 289 289 289 288 288 288 287 287 286 286 285 285 285 284 284 284 284 284 284
278 278 279 279 279 279 279 279 279 279 280 280 280 280 281 281 281 282 282 283 283 284 285 285 285 286 286 286 287 288 288 289 289 289 289 289 288 288 288 288 288 288 287 287 287 287 287 287 287 287 288 288 288 288 289 289 289 289 289 289 289 289 289 289 289 289 288 288 288 287 287 287 286 286 285 284 284 283 283 283 283 283 283 283 283 283
279 279 279 279 279 280 280 280 280 280 281 281 281 281 282 282 282 283 283 284 284 285 285 285 286 286 287 288 288 289 290 290 290 290 290 289 289 289 289 289 288 288 288 287 287 287 287 287 287 287 287 288 288 288 288 288 288 289 289 288 288 288 288 288 288 288 287 287 287 286 286 285 285 284 283 283 282 282 282 282 282 282 282 282 282 282
279 279 279 279 280 280 280 280 280 281 281 281 282 282 282 283 283 284 284 284 285 285 286 286 287 287 288 289 290 290 290 290 290 290 290 290 290 290 289 289 288 288 288 287 287 287 287 287 287 287 287 287 288 288 288 288 288 288 288 288 288 288 287 287 287 287 286 286 285 285 284 284 283 282 282 281 281 281 281 281 281 281 281 281 282 281
279 279 279 280 280 280 280 280 281 281 281 282 282 283 283 284 284 284 285 285 286 286 287 288 288 289 290 290 290 291 291 291 291 291 291 291 290 290 290 289 289 288 288 287 287 287 287 287 287 287 287 287 287 287 287 287 287 287 287 287 287 287 286 286 286 285 285 284 284 283 282 282 281 281 281 280 280 280 280 280 280 280 281 281 281 280
279 279 279 280 280 280 281 281 281 282 282 282 283 283 284 284 285 286 286 287 287 288 289 289 290 290 291 291 291 292 292 292 292 292 292 292 291 290 290 289 289 288 288 287 287 287 287 287 287 287 287 287 287 287 287 287 287 287 287 286 286 286 285 285 284 284 283 283 282 282 281 280 280 280 279 279 279 279 279 279 280 280 280 280 280 279
279 280 280 280 280 281 281 281 282 282 283 283 284 284 285 285 286 287 287 288 289 290 290 291 291 292 292 292 293 293 293 293 293 293 293 292 292 291 290 290 289 288 288 288 287 287 287 287 287 287 287 287 287 286 286 286 286 286 286 285 285 285 284 284 283 282 282 281 281 280 279 279 279 278 278 278 279 279 279 279 279 279 279 279 278 278
280 280 280 280 281 281 282 282 282 283 283 284 285 285 286 286 287 288 288 289 290 291 291 292 292 293 293 293 294 294 294 294 294 294 293 293 292 291 291 290 289 289 288 288 287 287 287 287 287 287 286 286 286 286 286 286 286 285 285 285 284 283 283 282 282 281 280 279 279 278 278 278 277 278 278 278 278 278 278 278 278 278 278 278 277 277
280 280 280 281 281 282 282 282 283 283 284 284 285 286 286 287 287 288 289 289 290 291 291 292 292 293 293 294 294 294 295 295 294 294 294 293 293 292 291 290 290 289 288 288 287 287 287 287 287 286 286 286 286 286 285 285 285 285 284 283 283 282 282 281 280 279 279 278 278 277 277 277 277 277 277 277 278 278 278 278 278 277 277 276 276 276
280 280 280 281 281 282 282 283 283 284 284 285 285 285 286 286 287 288 288 289 290 290 291 292 292 293 293 294 294 294 295 295 295 294 294 294 293 292 291 290 290 289 288 288 287 287 287 287 286 286 286 286 285 285 285 285 284 284 283 282 282 281 280 279 279 278 277 277 276 276 276 276 276 277 277 277 277 277 277 277 277 276 276 275 275 274
279 280 280 281 281 281 282 282 283 283 284 284 284 285 285 286 286 287 288 288 289 290 290 291 292 292 293 293 294 294 295 295 295 294 294 294 293 292 291 290 289 289 288 288 287 287 287 286 286 286 286 285 285 285 284 284 283 283 282 281 280 280 279 278 277 277 276 276 275 275 276 276 276 276 277 277 277 277 276 276 276 275 275 274 274 273
279 279 280 280 281 281 281 282 282 283 283 284 284 284 285 285 286 286 287 288 288 289 289 290 291 292 292 293 293 294 294 294 294 294 294 293 292 291 290 290 289 288 288 287 287 287 286 286 286 285 285 285 284 284 283 283 282 281 281 280 279 278 277 277 276 275 275 275 275 275 275 276 276 276 276 276 276 276 275 275 275 274 274 273 273 272
278 279 279 280 280 280 281 281 281 282 282 283 283 284 284 285 285 286 286 287 287 288 289 290 290 291 292 292 293 293 294 294 294 294 293 292 292 291 290 289 289 288 288 287 287 286 286 285 285 285 284 284 283 283 282 282 281 280 279 278 278 277 276 275 275 274 274 274 275 275 275 276 276 276 276 275 275 275 274 274 274 273 273 272 272 271
278 278 278 279 279 280 280 280 281 281 282 282 283 283 284 284 285 285 286 286 287 287 288 289 289 290 291 291 292 292 293 293 293 293 292 292 291 290 289 289 288 288 287 286 286 285 285 285 284 284 284 283 282 282 281 280 280 279 278 277 276 275 275 274 274 274 274 274 274 275 275 275 275 275 275 274 274 274 273 273 273 272 272 271 271 271
277 277 278 278 278 279 279 280 280 281 281 281 282 283 283 284 284 285 285 285 286 286 287 288 288 289 290 291 291 292 292 293 293 292 292 291 290 290 289 288 288 287 286 286 285 285 284 284 284 283 283 282 281 280 280 279 278 277 276 275 275 274 274 273 273 274 274 274 274 274 274 274 274 274 273 273 273 273 272 272 272 271 271 271 270 270
276 277 277 277 278 278 278 279 279 280 280 281 281 282 282 283 283 284 284 284 285 286 286 287 288 289 289 290 290 291 291 292 292 291 291 290 289 289 288 287 287 286 285 285 284 284 283 283 283 282 281 281 280 279 278 277 276 275 275 274 273 273 273 273 273 274 274 274 274 274 273 273 273 273 272 272 272 272 271 271 271 271 270 270 269 268
275 276 276 276 277 277 278 278 279 279 280 280 281 281 282 282 282 283 283 284 285 285 286 286 287 288 288 289 290 290 290 290 290 290 290 289 289 288 287 287 286 285 284 283 283 283 282 282 281 281 280 279 279 278 277 276 275 274 274 273 273 273 273 273 273 273 273 273 273 273 272 272 272 272 272 271 271 271 271 270 270 270 269 268 267 266
274 275 275 276 276 276 277 277 278 278 279 279 280 281 281 282 282 282 283 284 284 285 285 286 286 287 288 288 289 289 289 289 289 289 289 288 288 287 286 285 284 283 283 283 282 282 281 281 280 279 279 278 277 276 275 275 274 273 272 272 272 272 272 273 273 273 273 272 272 272 271 271 271 271 271 271 270 270 270 270 269 269 268 267 265 264
274 274 274 275 275 276 276 277 277 278 278 279 279 280 280 281 281 282 282 283 284 284 284 285 286 286 287 287 288 288 288 288 288 288 288 287 286 286 285 284 283 282 282 282 281 281 280 280 279 278 277 277 276 275 274 273 272 272 271 272 272 272 272 272 272 272 272 271 271 271 270 270 270 270 270 270 270 269 269 269 268 267 266 265 263 261
273 273 274 274 275 275 276 276 277 277 278 278 279 279 280 280 281 281 282 283 283 284 284 285 285 286 286 286 287 287 287 287 287 287 287 286 285 284 284 283 282 281 281 280 280 280 279 279 278 277 276 275 274 273 273 272 271 271 271 271 271 271 272 272 271 271 271 270 270 270 270 270 269 269 269 269 269 268 268 267 266 265 264 262 261 259
273 273 273 274 274 275 275 276 276 277 277 278 278 279 279 280 281 281 282 283 283 283 284 284 284 285 285 285 285 285 286 286 286 286 285 284 283 283 282 281 281 280 280 279 279 278 277 277 276 275 274 273 272 272 271 271 270 270 270 270 270 271 271 270 270 270 270 270 269 269 269 269 269 269 269 268 268 267 266 266 264 263 262 260 258 256
272 273 273 274 274 275 275 276 276 277 277 278 278 279 279 280 280 281 282 282 283 283 283 283 284 284 284 284 284 284 285 285 285 284 283 282 282 281 280 280 279 279 278 278 277 276 276 275 274 273 272 271 270 270 269 269 269 269 269 269 270 270 269 269 269 269 269 269 269 269 269 268 268 268 268 267 266 266 265 264 262 261 259 257 255 253
272 273 273 274 274 275 275 275 276 276 277 277 278 278 279 279 280 281 282 282 282 283 283 283 283 283 283 283 283 283 283 283 283 282 281 280 280 279 279 278 278 277 277 276 275 274 274 273 272 271 270 269 269 268 268 268 268 268 268 268 268 268 268 268 268 268 268 268 268 268 268 268 267 267 267 266 265 264 263 261 260 258 256 254 252 250
272 273 273 273 274 274 275 275 276 276 276 277 277 278 278 279 280 280 281 282 282 282 282 282 282 282 282 282 282 282 282 281 281 280 279 278 278 277 277 276 276 275 275 274 273 272 271 270 270 269 268 267 267 267 267 267 267 267 267 267 267 267 267 267 267 267 268 268 268 268 267 267 267 266 265 265 263 262 261 259 257 255 253 251 249 247
272 272 273 273 274 274 274 275 275 276 276 276 277 277 278 279 279 280 281 281 281 281 281 281 281 281 281 280 280 280 280 279 279 278 277 276 275 275 275 274 274 273 272 272 271 270 269 268 267 267 266 265 265 265 266 266 266 266 266 266 266 266 266 266 267 267 267 267 267 267 267 266 266 265 264 263 261 260 258 256 254 252 250 248 246 244
272 272 272 273 273 274 274 274 275 275 275 276 276 277 278 278 279 280 280 280 280 280 279 280 280 279 279 279 279 279 278 278 277 276 275 274 273 273 272 272 272 271 270 269 268 268 267 266 265 264 264 264 264 264 265 265 265 265 265 265 265 265 265 265 266 266 266 267 267 266 266 265 264 263 262 261 259 257 255 253 251 249 247 245 243 241
271 272 272 272 273 273 273 274 274 274 275 275 276 277 277 278 278 279 279 279 279 278 278 278 278 278 278 278 277 277 277 276 275 274 273 273 272 271 271 270 270 269 268 267 266 265 264 264 263 263 263 263 263 263 264 264 264 264 264 263 264 264 264 265 265 265 266 266 265 265 264 263 262 261 259 258 256 254 252 250 248 246 244 243 241 240
270 271 271 271 272 272 272 273 273 274 274 275 275 276 276 277 278 278 278 278 277 277 277 277 277 276 276 276 276 275 275 274 274 273 272 271 270 270 269 268 268 267 266 265 264 263 263 262 262 262 262 262 262 262 263 263 263 263 263 263 263 263 264 264 264 264 264 264 264 263 262 261 259 258 256 255 253 251 249 247 246 244 242 241 240 238
270 270 270 271 271 271 272 272 273 273 274 274 275 275 276 276 277 277 276 276 276 276 275 275 275 274 274 274 274 273 273 272 272 271 270 269 269 268 267 266 266 265 264 263 262 262 261 261 261 261 261 261 261 262 262 262 262 262 262 263 263 263 263 263 263 263 263 262 261 260 259 258 256 255 253 252 250 248 247 245 244 242 241 240 238 237
269 269 269 270 270 270 271 271 272 272 273 273 274 274 274 275 275 275 275 275 274 274 274 273 273 273 272 272 271 271 270 270 269 269 268 267 267 266 265 265 264 263 262 261 261 260 260 260 260 260 260 260 261 261 261 262 262 262 262 263 263 263 263 263 262 262 261 260 259 258 256 255 253 252 250 249 247 246 244 243 242 241 240 239 238 236
268 268 268 269 269 269 270 270 271 271 272 272 272 273 273 273 274 274 273 273 273 272 272 272 271 271 270 270 269 269 268 268 267 266 266 265 265 264 263 263 262 261 261 260 260 259 259 259 259 259 260 260 260 261 261 261 262 262 262 263 263 263 262 262 261 260 259 258 256 255 253 252 250 249 248 246 245 244 242 241 240 239 239 238 237 235
266 267 267 267 268 268 269 269 270 270 270 271 271 271 272 272 272 272 271 271 271 271 270 270 269 269 268 268 267 266 266 265 265 264 263 263 262 262 261 261 260 259 259 259 259 259 259 259 259 259 259 260 260 261 261 261 262 262 262 262 262 262 262 261 259 258 257 255 254 252 251 249 248 247 245 244 243 241 240 239 238 238 237 237 236 234
265 265 266 266 266 267 267 268 268 268 269 269 269 270 270 270 270 270 269 269 269 269 268 268 267 267 266 265 264 264 263 263 262 262 261 261 260 260 259 258 258 258 258 258 258 258 258 258 258 258 258 259 260 260 261 261 261 262 261 261 261 261 260 259 257 256 254 253 251 250 248 247 246 244 243 242 241 239 239 238 237 236 236 235 234 233
264 264 264 264 265 265 265 266 266 267 267 267 268 268 268 268 268 268 267 267 267 267 266 265 265 264 263 263 262 261 261 260 260 259 259 258 258 257 257 256 256 256 257 257 257 257 257 257 257 258 258 258 259 260 260 261 261 261 261 260 259 258 257 256 254 253 251 250 248 247 246 245 243 242 241 240 239 238 237 236 236 235 234 233 233 233
262 262 262 263 263 263 264 264 264 265 265 266 266 266 266 266 266 265 265 266 265 265 264 263 262 262 261 260 260 259 259 258 257 257 256 256 255 255 255 255 255 255 255 256 256 256 256 256 257 257 257 258 258 259 259 260 260 260 259 258 257 256 255 253 251 249 248 246 245 244 243 242 241 240 239 238 237 236 236 235 234 234 234 233 232 232
260 260 261 261 261 261 262 262 263 263 263 264 264 264 264 264 263 263 264 264 263 262 262 261 260 259 259 258 257 257 256 256 255 254 254 253 253 252 252 253 253 254 254 255 255 255 255 255 256 256 256 257 258 258 258 258 258 258 257 256 254 253 251 249 248 246 244 243 242 242 241 240 239 238 237 236 236 235 234 234 233 233 233 233 233 233
258 258 259 259 259 260 260 260 260 261 261 262 262 262 261 261 261 262 262 261 261 260 259 258 258 257 256 255 255 254 254 253 253 252 251 251 250 250 251 251 252 253 253 254 254 254 254 254 254 255 255 256 257 257 257 256 256 255 254 253 251 249 248 246 244 243 241 240 239 239 238 237 237 236 236 235 234 234 233 233 232 232 233 233 233 234
256 256 257 257 257 257 258 258 258 259 259 259 259 259 259 259 259 260 260 259 258 257 256 256 255 254 254 253 252 252 251 251 250 249 249 248 248 249 249 250 251 251 252 252 252 252 252 253 253 253 254 254 255 255 255 254 253 252 251 249 248 246 244 242 241 239 238 237 237 236 236 236 236 235 235 234 233 232 232 232 232 232 233 233 234 235
254 254 255 255 255 255 255 256 256 256 256 256 256 256 256 257 258 258 257 256 255 254 254 253 253 252 251 251 250 249 249 248 247 247 246 246 247 247 248 249 250 250 250 250 250 250 251 251 252 252 252 252 252 252 252 251 250 249 248 246 244 243 240 239 238 237 236 235 235 234 234 234 234 234 233 233 232 232 232 232 232 233 233 234 235 236
252 252 252 252 253 253 253 253 254 254 254 254 254 254 254 255 256 255 254 253 252 252 251 251 250 249 249 248 247 247 246 245 245 244 245 245 246 246 247 248 248 248 248 248 248 249 249 250 250 250 250 250 249 249 249 248 247 246 245 243 241 240 237 236 235 234 234 233 233 233 233 233 233 233 232 232 232 232 232 232 233 233 234 235 236 237
Height
10557 10554 10554 10554 10553 10551 10550 10549 10549 10549 10548 10546 10545 10545 10544 10543 10542 10541 10541 10540 10539 10539 10538 10537 10536 10534 10533 10532 10531 10531 10529 10528 10526 10525 10524 10522 10521 10519 10518 10517 10516 10514 10512 10511 10510 10509 10507 10506 10504 10502 10501 10499 10497 10496 10495 10494 10492 10491 10489 10487 10486 10485 10483 10482 10480 10478 10476 10473 10472 10471 10469 10468 10466 10465 10464 10462 10462 10461 10459 10458 10457 10456 10454 10453 10452 10451
10550 10548 10547 10546 10546 10544 10542 10541 10541 10542 10541 10539 10537 10537 10537 10536 10534 10533 10532 10532 10532 10531 10531 10531 10529 10528 10527 10526 10525 10524 10523 10522 10520 10519 10517 10516 10514 10512 10511 10509 10507 10506 10504 10503 10502 10501 10499 10498 10496 10495 10493 10492 10491 10489 10488 10487 10486 10484 10482 10481 10480 10479 10477 10475 10473 10471 10469 10467 10465 10464 10463 10462 10461 10459 10457 10456 10455 10454 10453 10452 10451 10449 10448 10447 10446 10446
10542 10541 10539 10537 10537 10537 10536 10533 10532 10533 10534 10532 10531 10529 10529 10529 10527 10526 10525 10525 10525 10524 10523 10523 10522 10522 10520 10518 10517 10517 10517 10515 10513 10512 10511 10509 10508 10506 10504 10502 10501 10499 10497 10496 10496 10494 10492 10491 10489 10488 10487 10486 10484 10482 10481 10480 10479 10477 10476 10475 10473 10472 10470 10469 10466 10464 10462 10460 10459 10457 10457 10456 10454 10452 10451 10449 10449 10447 10447 10446 10445 10443 10442 10442 10441 10439
10533 10532 10531 10529 10529 10529 10527 10526 10526 10526 10526 10524 10524 10523 10522 10521 10521 10519 10518 10518 10517 10517 10516 10516 10515 10514 10513 10511 10510 10509 10509 10507 10506 10504 10502 10501 10500 10498 10496 10495 10493 10492 10491 10490 10489 10487 10486 10484 10483 10481 10480 10479 10477 10476 10474 10473 10472 10470 10469 10467 10466 10465 10464 10462 10459 10457 10455 10452 10451 10450 10449 10448 10447 10446 10444 10443 10442 10441 10441 10440 10439 10437 10436 10436 10435 10434
10524 10524 10523 10521 10521 10521 10519 10518 10518 10518 10517 10516 10516 10516 10514 10514 10513 10512 10511 10511 10510 10509 10509 10508 10507 10507 10506 10504 10502 10501 10500 10499 10497 10496 10494 10492 10491 10490 10488 10487 10485 10484 10483 10482 10481 10480 10479 10477 10476 10474 10473 10471 10470 10469 10467 10466 10464 10462 10461 10460 10459 10457 10456 10454 10452 10450 10447 10446 10444 10443 10442 10441 10440 10439 10437 10436 10435 10434 10434 10433 10432 10432 10431 10430 10429 10428
10515 10516 10515 10514 10513 10512 10511 10510 10510 10509 10509 10508 10507 10507 10507 10506 10506 10504 10503 10502 10502 10502 10501 10501 10499 10499 10497 10496 10494 10492 10491 10490 10489 10487 10485 10484 10482 10481 10479 10478 10477 10476 10475 10474 10473 10472 10471 10469 10467 10466 10465 10464 10462 10461 10459 10458 10456 10455 10454 10452 10451 10450 10448 10446 10444 10442 10441 10439 10437 10436 10435 10434 10433 10432 10431 10430 10429 10427 10427 10427 10426 10426 10425 10424 10423 10422
10506 10507 10507 10506 10505 10504 10502 10502 10501 10501 10500 10499 10499 10498 10497 10497 10497 10497 10496 10495 10494 10494 10494 10492 10492 10491 10490 10488 10487 10485 10484 10482 10480 10478 10476 10474 10472 10471 10470 10469 10468 10467 10466 10466 10464 10463 10462 10461 10459 10458 10457 10456 10454 10453 10451 10450 10449 10447 10446 10445 10443 10442 10440 10439 10437 10436 10434 10432 10431 10429 10428 10427 10426 10426 10425 10424 10422 10421 10421 10421 10420 10420 10419 10419 10418 10417
10499 10497 10497 10497 10497 10496 10494 10492 10492 10492 10491 10491 10490 10489 10488 10488 10488 10488 10487 10487 10487 10486 10486 10484 10484 10482 10481 10481 10479 10479 10476 10474 10471 10469 10467 10464 10463 10462 10461 10460 10459 10458 10457 10457 10456 10454 10453 10452 10451 10449 10448 10447 10446 10444 10443 10442 10441 10439 10438 10437 10436 10434 10432 10431 10429 10428 10427 10426 10424 10422 10421 10421 10420 10419 10418 10417 10416 10416 10414 10414 10414 10414 10413 10413 10412 10412
10491 10489 10488 10487 10487 10487 10486 10483 10482 10481 10482 10482 10482 10480 10479 10479 10479 10479 10479 10479 10479 10478 10477 10476 10475 10474 10472 10471 10471 10471 10468 10464 10461 10459 10457 10455 10453 10452 10451 10451 10450 10449 10448 10447 10447 10446 10444 10443 10442 10441 10440 10439 10437 10436 10435 10434 10432 10431 10430 10429 10427 10426 10425 10424 10422 10421 10420 10419 10417 10416 10415 10414 10414 10413 10412 10411 10411 10409 10409 10408 10408 10408 10407 10407 10407 10407
10481 10481 10479 10478 10477 10476 10476 10475 10472 10471 10471 10472 10473 10472 10471 10470 10470 10470 10469 10469 10468 10469 10469 10468 10467 10465 10463 10462 10461 10460 10458 10455 10451 10449 10447 10446 10444 10443 10442 10442 10441 10441 10440 10439 10437 10437 10436 10434 10433 10432 10431 10430 10429 10428 10427 10426 10424 10424 10422 10421 10420 10419 10417 10416 10416 10414 10413 10412 10411 10409 10409 10408 10407 10407 10406 10406 10404 10404 10403 10402 10402 10402 10402 10402 10401 10401
10471 10470 10470 10469 10468 10467 10466 10465 10464 10462 10461 10462 10462 10462 10461 10461 10461 10461 10461 10459 10457 10457 10458 10459 10458 10456 10454 10452 10450 10448 10447 10445 10442 10439 10437 10437 10436 10435 10434 10433 10432 10432 10431 10430 10429 10427 10427 10426 10425 10424 10423 10422 10421 10420 10419 10418 10417 10416 10415 10414 10412 10412 10411 10409 10408 10407 10406 10405 10404 10403 10402 10402 10401 10401 10400 10399 10399 10398 10397 10397 10397 10397 10396 10396 10396 10396
10460 10459 10459 10459 10458 10457 10455 10454 10454 10452 10452 10452 10452 10451 10450 10449 10450 10451 10451 10449 10447 10446 10447 10447 10447 10446 10444 10443 10441 10438 10436 10434 10432 10431 10429 10429 10428 10427 10426 10425 10424 10424 10423 10422 10421 10419 10418 10417 10417 10416 10415 10414 10413 10412 10411 10411 10410 10409 10408 10407 10406 10405 10404 10402 10402 10401 10399 10399 10397 10397 10396 10396 10395 10394 10394 10394 10393 10393 10392 10392 10392 10391 10391 10391 10391 10391
10449 10449 10448 10448 10447 10446 10444 10444 10442 10442 10441 10441 10441 10441 10440 10439 10439 10439 10441 10439 10438 10437 10437 10437 10436 10435 10434 10434 10432 10429 10427 10425 10423 10422 10421 10421 10420 10419 10419 10417 10416 10415 10414 10414 10412 10411 10411 10410 10409 10408 10407 10407 10406 10405 10404 10404 10403 10402 10401 10400 10399 10398 10397 10396 10395 10394 10393 10392 10391 10391 10390 10389 10389 10389 10388 10388 10387 10387 10387 10387 10386 10386 10386 10386 10386 10386
10439 10438 10438 10437 10437 10435 10434 10433 10432 10432 10431 10431 10431 10431 10430 10429 10429 10429 10429 10429 10428 10428 10429 10429 10427 10426 10425 10424 10423 10421 10419 10417 10415 10414 10413 10412 10412 10411 10411 10409 10408 10407 10406 10406 10404 10403 10403 10402 10402 10401 10401 10400 10399 10398 10397 10397 10396 10395 10394 10393 10392 10391 10391 10389 10388 10387 10387 10386 10385 10384 10384 10384 10383 10383 10382 10382 10382 10382 10382 10381 10381 10381 10381 10381 10381 10381
10429 10428 10428 10427 10426 10425 10424 10424 10423 10422 10421 10421 10421 10421 10421 10420 10419 10419 10420 10419 10419 10419 10419 10419 10418 10417 10416 10415 10414 10413 10411 10409 10407 10406 10405 10404 10404 10404 10404 10402 10400 10399 10399 10398 10397 10396 10396 10396 10395 10394 10394 10393 10392 10392 10391 10390 10389 10388 10387 10386 10386 10384 10384 10383 10382 10381 10381 10379 10379 10379 10378 10377 10377 10377 10377 10377 10377 10377 10376 10376 10376 10376 10376 10376 10376 10376
10419 10419 10419 10417 10416 10415 10414 10414 10414 10413 10412 10412 10412 10412 10412 10411 10410 10410 10410 10410 10409 10410 10411 10410 10409 10407 10406 10406 10406 10406 10404 10402 10400 10399 10398 10397 10396 10396 10396 10394 10392 10391 10391 10390 10389 10389 10388 10388 10387 10387 10387 10386 10386 10385 10384 10383 10382 10382 10381 10380 10379 10378 10377 10377 10376 10375 10374 10374 10373 10372 10372 10372 10371 10371 10371 10371 10371 10371 10371 10371 10371 10371 10371 10371 10371 10371
10411 10410 10409 10408 10407 10406 10405 10404 10404 10404 10404 10403 10403 10403 10403 10402 10402 10401 10401 10401 10401 10401 10401 10401 10400 10399 10397 10396 10397 10397 10397 10395 10393 10391 10391 10390 10389 10388 10389 10387 10385 10383 10382 10382 10382 10382 10381 10381 10381 10381 10380 10379 10379 10378 10377 10377 10376 10375 10374 10374 10372 10372 10371 10371 10370 10369 10369 10367 10367 10367 10366 10366 10366 10366 10366 10366 10366 10366 10366 10366 10366 10366 10366 10366 10366 10367
10401 10401 10401 10399 10398 10397 10396 10396 10396 10395 10395 10395 10395 10395 10394 10394 10394 10393 10392 10391 10391 10391 10391 10391 10391 10390 10389 10388 10387 10388 10390 10388 10386 10384 10384 10382 10381 10381 10381 10380 10378 10376 10376 10375 10375 10374 10374 10374 10374 10374 10373 10372 10372 10371 10371 10370 10369 10369 10368 10367 10366 10366 10365 10364 10364 10363 10362 10362 10362 10361 10361 10361 10361 10361 10361 10361 10361 10361 10361 10361 10361 10361 10361 10361 10362 10362
10392 10392 10392 10391 10390 10389 10388 10387 10387 10386 10386 10386 10387 10387 10386 10386 10385 10384 10384 10383 10382 10382 10381 10381 10381 10381 10381 10381 10380 10380 10382 10381 10379 10377 10376 10375 10374 10374 10374 10372 10371 10369 10368 10368 10367 10367 10367 10367 10367 10367 10366 10366 10365 10364 10364 10364 10363 10362 10362 10361 10360 10359 10359 10358 10358 10357 10357 10357 10356 10356 10356 10356 10356 10356 10356 10356 10356 10356 10356 10356 10356 10356 10357 10357 10357 10357
10384 10383 10382 10382 10382 10381 10380 10379 10378 10378 10378 10378 10379 10379 10378 10377 10377 10377 10376 10375 10374 10374 10373 10372 10372 10372 10372 10372 10372 10372 10374 10374 10372 10370 10369 10367 10367 10366 10366 10366 10364 10362 10361 10361 10361 10361 10361 10361 10361 10360 10359 10359 10358 10358 10357 10357 10357 10356 10356 10354 10354 10353 10353 10352 10352 10352 10351 10351 10351 10351 10351 10351 10351 10351 10351 10351 10351 10351 10351 10351 10351 10352 10352 10352 10352 10352
10376 10375 10374 10374 10374 10374 10372 10371 10369 10369 10370 10370 10371 10371 10370 10370 10370 10369 10368 10367 10367 10366 10365 10365 10364 10364 10364 10365 10365 10365 10366 10366 10365 10363 10362 10361 10359 10359 10359 10358 10357 10356 10354 10354 10354 10355 10354 10354 10354 10354 10353 10352 10352 10351 10351 10351 10350 10350 10349 10349 10348 10347 10347 10347 10346 10346 10346 10346 10346 10346 10346 10346 10346 10346 10346 10346 10346 10346 10346 10346 10346 10347 10347 10347 10347 10347
10369 10367 10366 10366 10366 10366 10365 10363 10362 10362 10362 10362 10362 10362 10362 10363 10363 10362 10361 10361 10360 10359 10357 10357 10357 10357 10357 10357 10357 10357 10359 10359 10358 10357 10356 10354 10352 10351 10352 10351 10351 10349 10348 10347 10347 10348 10348 10348 10347 10347 10347 10346 10346 10345 10344 10344 10344 10344 10343 10342 10342 10342 10341 10341 10341 10341 10341 10341 10341 10341 10341 10341 10341 10341 10341 10341 10341 10341 10341 10341 10342 10342 10342 10342 10342 10343
10361 10360 10359 10359 10359 10359 10357 10357 10356 10354 10354 10354 10354 10354 10355 10356 10356 10356 10355 10354 10353 10352 10351 10350 10350 10350 10351 10351 10351 10351 10351 10352 10351 10351 10349 10347 10346 10344 10345 10345 10344 10342 10341 10341 10341 10342 10341 10341 10341 10341 10341 10340 10339 10339 10338 10338 10338 10337 10337 10337 10336 10336 10336 10336 10336 10336 10336 10336 10336 10336 10336 10336 10336 10336 10336 10336 10336 10336 10336 10337 10337 10337 10337 10337 10338 10338
10354 10353 10352 10352 10351 10351 10351 10350 10349 10347 10347 10347 10347 10347 10347 10349 10349 10349 10349 10348 10347 10346 10344 10344 10343 10343 10343 10344 10344 10344 10344 10344 10345 10344 10343 10341 10339 10338 10338 10338 10337 10336 10335 10335 10335 10335 10335 10335 10335 10334 10334 10334 10333 10332 10332 10332 10332 10332 10331 10331 10331 10331 10331 10330 10330 10331 10331 10331 10331 10331 10331 10331 10331 10331 10331 10331 10331 10332 10332 10332 10332 10332 10333 10333 10334 10334
10346 10346 10345 10345 10344 10344 10344 10343 10342 10341 10340 10339 10339 10340 10341 10341 10342 10342 10342 10342 10341 10339 10338 10338 10337 10336 10336 10336 10337 10336 10336 10337 10338 10337 10336 10334 10333 10332 10332 10332 10331 10330 10329 10329 10329 10329 10329 10328 10329 10329 10329 10328 10327 10327 10327 10327 10326 10326 10326 10326 10326 10325 10325 10325 10325 10326 10326 10326 10326 10326 10326 10327 10327 10327 10327 10327 10327 10327 10327 10327 10327 10328 10328 10329 10329 10329
10338 10338 10338 10337 10337 10337 10337 10336 10336 10334 10334 10332 10332 10332 10333 10334 10335 10335 10335 10334 10334 10333 10332 10332 10331 10330 10329 10330 10329 10329 10330 10331 10331 10331 10329 10328 10327 10326 10326 10326 10326 10324 10323 10322 10322 10323 10322 10322 10322 10322 10322 10322 10322 10322 10321 10321 10321 10321 10321 10320 10320 10320 10320 10320 10320 10321 10321 10321 10322 10322 10322 10322 10322 10322 10322 10322 10322 10322 10322 10323 10323 10324 10324 10324 10324 10325
10331 10331 10331 10331 10331 10330 10329 10329 10328 10327 10327 10326 10326 10326 10326 10327 10327 10327 10327 10327 10327 10327 10327 10325 10324 10323 10323 10323 10323 10322 10323 10324 10324 10324 10323 10322 10321 10320 10319 10319 10319 10319 10317 10317 10317 10317 10317 10317 10317 10317 10317 10317 10316 10316 10316 10316 10316 10316 10315 10315 10315 10315 10315 10315 10316 10316 10316 10317 10317 10317 10317 10317 10317 10317 10317 10317 10318 10318 10318 10319 10319 10319 10319 10320 10321 10321
10324 10324 10324 10323 10323 10323 10322 10322 10321 10321 10319 10319 10319 10319 10319 10320 10321 10320 10320 10321 10321 10321 10320 10319 10318 10317 10317 10316 10316 10316 10317 10317 10317 10317 10317 10317 10316 10314 10313 10314 10314 10313 10312 10311 10311 10311 10311 10311 10311 10311 10311 10311 10311 10311 10311 10311 10311 10311 10310 10310 10310 10310 10311 10311 10311 10312 10312 10312 10312 10312 10312 10313 10313 10313 10313 10313 10314 10314 10314 10314 10315 10315 10316 10316 10316 10317
10316 10316 10316 10316 10316 10316 10315 10314 10314 10313 10312 10312 10312 10312 10312 10312 10313 10313 10313 10314 10316 10315 10313 10312 10312 10312 10311 10310 10310 10310 10310 10310 10310 10311 10311 10311 10309 10307 10307 10308 10307 10307 10307 10306 10306 10306 10306 10306 10306 10306 10306 10306 10306 10306 10306 10306 10306 10306 10305 10305 10306 10306 10306 10306 10307 10307 10307 10307 10307 10308 10308 10308 10309 10309 10309 10309 10309 10309 10310 10310 10311 10311 10311 10312 10312 10312
10309 10309 10309 10308 10308 10308 10308 10307 10307 10306 10305 10305 10305 10304 10304 10305 10306 10307 10307 10309 10309 10309 10307 10306 10306 10306 10304 10304 10304 10303 10303 10303 10304 10305 10306 10304 10302 10302 10302 10302 10301 10301 10301 10301 10301 10300 10299 10300 10301 10301 10301 10301 10301 10301 10301 10301 10301 10301 10301 10301 10301 10301 10302 10302 10302 10302 10302 10303 10303 10304 10304 10304 10304 10304 10304 10305 10305 10306 10306 10306 10306 10307 10307 10307 10308 10309
10301 10301 10301 10301 10300 10300 10300 10300 10299 10299 10298 10297 10297 10297 10297 10297 10299 10300 10302 10303 10303 10302 10301 10300 10299 10299 10299 10298 10297 10297 10296 10296 10298 10299 10299 10298 10296 10296 10296 10296 10296 10295 10296 10296 10296 10295 10294 10294 10295 10296 10296 10296 10296 10296 10296 10296 10296 10296 10296 10296 10297 10297 10297 10298 10298 10298 10298 10298 10299 10299 10299 10299 10300 10300 10301 10301 10301 10301 10302 10302 10302 10303 10303 10304 10304 10305
10292 10292 10292 10292 10292 10292 10292 10292 10292 10291 10291 10290 10290 10290 10290 10290 10291 10293 10296 10296 10297 10296 10295 10294 10293 10292 10292 10292 10291 10291 10290 10291 10292 10293 10293 10292 10291 10290 10290 10290 10290 10290 10290 10291 10290 10290 10289 10289 10289 10291 10291 10291 10291 10291 10291 10291 10291 10291 10292 10292 10292 10293 10293 10294 10294 10294 10294 10294 10294 10295 10295 10296 10296 10296 10296 10297 10297 10297 10297 10298 10299 10299 10299 10300 10301 10301
10284 10284 10284 10284 10284 10284 10284 10284 10284 10284 10283 10282 10282 10282 10282 10283 10284 10287 10289 10290 10291 10289 10289 10287 10287 10286 10286 10286 10285 10284 10284 10286 10286 10287 10287 10286 10285 10284 10284 10284 10284 10284 10285 10285 10285 10285 10284 10284 10285 10286 10286 10286 10286 10286 10286 10286 10287 10287 10287 10288 10289 10289 10289 10289 10289 10289 10289 10290 10290 10291 10291 10291 10292 10292 10292 10293 10293 10294 10294 10294 10295 10296 10296 10296 10297 10298
10275 10276 10276 10276 10276 10276 10276 10276 10276 10276 10276 10275 10275 10275 10275 10276 10277 10280 10282 10284 10284 10283 10282 10281 10281 10280 10280 10279 10279 10279 10279 10280 10281 10281 10281 10280 10279 10279 10279 10279 10279 10279 10280 10280 10280 10280 10279 10280 10280 10281 10281 10281 10281 10281 10282 10282 10282 10283 10284 10284 10284 10285 10285 10285 10285 10286 10286 10286 10286 10286 10287 10287 10287 10288 10289 10289 10289 10290 10291 10291 10291 10292 10292 10293 10294 10295
10266 10267 10267 10267 10268 10268 10267 10267 10267 10267 10267 10267 10267 10268 10268 10269 10271 10273 10276 10277 10277 10276 10276 10275 10274 10274 10274 10273 10273 10273 10274 10274 10276 10276 10276 10274 10274 10274 10274 10274 10274 10274 10275 10275 10275 10275 10275 10275 10276 10276 10276 10276 10276 10277 10277 10278 10279 10279 10280 10280 10281 10281 10281 10281 10281 10281 10282 10282 10282 10282 10283 10283 10284 10284 10285 10285 10286 10286 10287 10287 10288 10289 10289 10290 10291 10292
10257 10257 10258 10259 10259 10259 10259 10259 10259 10259 10260 10260 10261 10261 10261 10262 10264 10267 10269 10270 10270 10269 10269 10269 10268 10268 10267 10267 10267 10267 10268 10269 10270 10270 10269 10269 10269 10269 10269 10269 10269 10270 10270 10270 10270 10271 10271 10271 10271 10271 10272 10272 10272 10272 10273 10274 10275 10275 10276 10276 10276 10277 10277 10277 10277 10277 10277 10278 10278 10279 10279 10279 10280 10281 10281 10282 10282 10283 10283 10284 10285 10286 10286 10287 10287 10289
10247 10248 10249 10249 10250 10251 10251 10251 10251 10252 10252 10252 10253 10254 10255 10256 10258 10261 10262 10263 10263 10262 10262 10262 10262 10262 10261 10261 10262 10262 10262 10264 10264 10264 10264 10264 10264 10264 10264 10264 10264 10265 10266 10265 10265 10266 10266 10266 10267 10267 10267 10267 10268 10269 10269 10270 10271 10271 10272 10272 10272 10273 10273 10273 10274 10274 10274 10274 10274 10275 10276 10276 10276 10277 10277 10278 10279 10279 10280 10281 10282 10282 10283 10284 10285 10286
10238 10239 10239 10240 10241 10242 10242 10242 10242 10244 10244 10246 10246 10247 10248 10250 10252 10254 10256 10256 10256 10256 10256 10256 10256 10256 10255 10255 10256 10256 10257 10257 10257 10258 10258 10258 10258 10259 10259 10259 10259 10260 10261 10261 10261 10261 10261 10262 10262 10262 10263 10264 10264 10265 10265 10266 10266 10267 10267 10268 10269 10269 10269 10269 10270 10270 10271 10271 10271 10271 10272 10272 10273 10274 10274 10275 10276 10276 10277 10277 10279 10279 10280 10281 10282 10283
10229 10229 10230 10230 10232 10233 10234 10234 10235 10235 10237 10239 10239 10241 10242 10243 10245 10247 10248 10249 10249 10249 10250 10250 10250 10249 10249 10249 10250 10250 10251 10251 10251 10252 10252 10252 10253 10253 10254 10254 10254 10255 10256 10256 10256 10257 10257 10257 10257 10258 10259 10259 10260 10261 10261 10262 10262 10263 10264 10264 10264 10265 10266 10266 10266 10267 10267 10267 10267 10268 10269 10269 10269 10270 10271 10271 10272 10273 10274 10274 10276 10276 10277 10278 10279 10280
10219 10220 10220 10222 10223 10224 10225 10226 10227 10229 10230 10232 10232 10234 10235 10237 10239 10240 10241 10242 10242 10242 10243 10244 10244 10244 10244 10244 10244 10244 10245 10245 10246 10246 10246 10247 10247 10248 10249 10249 10250 10250 10251 10251 10252 10252 10252 10253 10254 10254 10255 10256 10256 10256 10257 10257 10259 10259 10260 10260 10261 10261 10262 10262 10262 10263 10263 10264 10264 10264 10265 10266 10266 10267 10267 10269 10269 10270 10271 10272 10272 10274 10275 10276 10277 10277
10209 10210 10211 10213 10214 10216 10217 10219 10220 10222 10223 10224 10225 10227 10229 10230 10232 10233 10234 10235 10235 10236 10237 10238 10238 10238 10238 10238 10239 10239 10239 10239 10240 10241 10241 10242 10242 10243 10244 10244 10245 10246 10246 10246 10247 10247 10248 10249 10249 10250 10251 10251 10252 10252 10253 10254 10254 10256 10256 10256 10257 10257 10258 10259 10259 10259 10260 10260 10261 10261 10262 10262 10263 10264 10265 10266 10266 10267 10268 10269 10270 10271 10272 10273 10274 10275
10200 10201 10202 10204 10207 10209 10210 10211 10213 10214 10215 10217 10219 10220 10221 10224 10225 10227 10227 10228 10229 10230 10231 10232 10232 10232 10232 10232 10232 10233 10234 10234 10235 10235 10236 10237 10237 10238 10239 10240 10240 10241 10241 10242 10242 10243 10244 10245 10246 10246 10247 10247 10248 10249 10249 10250 10251 10252 10252 10252 10253 10254 10254 10255 10256 10256 10256 10257 10257 10258 10259 10259 10260 10261 10262 10262 10264 10264 10266 10267 10267 10269 10270 10271 10272 10273
10190 10192 10194 10197 10199 10200 10202 10204 10205 10207 10208 10210 10211 10212 10214 10217 10219 10219 10220 10222 10222 10224 10225 10225 10226 10226 10227 10227 10227 10227 10228 10229 10230 10230 10231 10232 10232 10234 10234 10235 10235 10236 10237 10237 10238 10239 10240 10241 10242 10242 10243 10244 10244 10245 10246 10246 10247 10247 10248 10249 10249 10250 10251 10251 10252 10252 10253 10253 10254 10255 10256 10256 10257 10258 10259 10260 10261 10262 10263 10264 10265 10266 10267 10268 10269 10271
10182 10184 10186 10189 10190 10193 10195 10197 10198 10199 10200 10202 10204 10205 10207 10210 10211 10212 10214 10215 10217 10218 10219 10219 10220 10220 10221 10221 10222 10222 10223 10224 10225 10225 10226 10227 10228 10229 10230 10230 10231 10232 10232 10233 10234 10235 10236 10237 10237 10239 10239 10240 10241 10241 10242 10242 10243 10244 10244 10245 10246 10246 10247 10247 10248 10249 10250 10250 10251 10252 10252 10254 10254 10256 10256 10257 10258 10259 10261 10262 10262 10264 10265 10266 10267 10268
10174 10175 10178 10180 10183 10185 10187 10189 10190 10192 10194 10195 10197 10199 10201 10202 10204 10205 10207 10209 10210 10212 10212 10213 10214 10215 10215 10215 10216 10217 10218 10219 10220 10220 10222 10222 10224 10225 10225 10226 10226 10227 10228 10229 10230 10231 10232 10233 10234 10234 10235 10237 10237 10237 10238 10239 10239 10240 10241 10241 10242 10242 10243 10244 10245 10246 10246 10247 10248 10249 10250 10251 10252 10252 10254 10254 10256 10257 10258 10259 10260 10261 10262 10263 10264 10266
10165 10167 10169 10172 10175 10177 10179 10180 10183 10185 10186 10188 10190 10192 10194 10195 10197 10199 10202 10204 10205 10205 10206 10207 10209 10209 10209 10210 10211 10212 10213 10214 10215 10216 10217 10218 10219 10220 10220 10221 10222 10223 10224 10225 10226 10227 10229 10229 10230 10231 10232 10232 10233 10234 10234 10235 10235 10236 10237 10238 10239 10239 10240 10241 10242 10242 10243 10244 10245 10246 10247 10248 10249 10250 10251 10252 10253 10254 10256 10256 10257 10259 10259 10261 10262 10262
10156 10159 10162 10164 10167 10169 10171 10174 10176 10178 10179 10182 10184 10186 10187 10189 10191 10194 10197 10199 10200 10200 10200 10202 10203 10204 10204 10205 10206 10207 10208 10209 10210 10212 10213 10214 10215 10215 10216 10217 10218 10219 10220 10222 10223 10224 10225 10225 10227 10227 10228 10229 10229 10230 10230 10232 10232 10233 10234 10234 10235 10236 10237 10238 10239 10240 10241 10241 10242 10243 10244 10246 10246 10247 10248 10249 10251 10252 10253 10254 10255 10256 10257 10258 10259 10260
10149 10151 10154 10157 10160 10162 10164 10167 10169 10171 10173 10175 10177 10179 10180 10182 10185 10189 10191 10193 10194 10195 10195 10196 10197 10198 10199 10200 10201 10202 10204 10205 10206 10207 10209 10210 10210 10211 10212 10213 10214 10215 10217 10218 10219 10220 10221 10222 10223 10224 10225 10225 10226 10227 10227 10228 10229 10229 10230 10231 10232 10233 10234 10235 10235 10237 10238 10239 10239 10241 10242 10242 10243 10244 10246 10247 10248 10249 10250 10251 10252 10253 10254 10256 10256 10257
10140 10144 10146 10150 10152 10155 10157 10159 10162 10164 10166 10169 10170 10172 10174 10176 10180 10183 10185 10187 10188 10189 10190 10190 10192 10193 10194 10195 10196 10198 10199 10200 10202 10203 10204 10205 10206 10207 10208 10209 10210 10212 10214 10215 10216 10217 10217 10219 10219 10220 10221 10222 10222 10223 10224 10224 10225 10226 10227 10228 10229 10230 10231 10232 10233 10234 10235 10236 10237 10238 10239 10240 10241 10242 10243 10244 10245 10246 10247 10249 10249 10251 10252 10252 10254 10254
10134 10136 10139 10142 10145 10148 10150 10153 10155 10157 10160 10162 10164 10165 10168 10171 10174 10177 10180 10181 10182 10183 10184 10185 10186 10188 10189 10190 10192 10193 10195 10196 10197 10199 10200 10201 10202 10203 10204 10205 10207 10209 10210 10211 10212 10213 10214 10215 10215 10217 10217 10219 10219 10220 10220 10221 10222 10223 10224 10225 10226 10227 10228 10229 10230 10231 10232 10233 10234 10235 10236 10237 10238 10239 10241 10241 10242 10244 10244 10246 10247 10247 10249 10250 10251 10252
10127 10129 10132 10135 10139 10141 10144 10147 10149 10151 10154 10155 10157 10160 10163 10166 10169 10172 10174 10175 10176 10177 10179 10180 10182 10183 10184 10185 10187 10189 10190 10192 10194 10194 10195 10197 10198 10199 10200 10202 10204 10205 10207 10208 10209 10210 10210 10211 10212 10213 10214 10215 10216 10217 10217 10218 10219 10220 10221 10222 10223 10224 10225 10226 10227 10229 10229 10230 10231 10232 10234 10234 10235 10237 10237 10239 10240 10241 10242 10243 10244 10245 10246 10247 10248 10249